TimeEST,TemperatureF,Dew PointF,Humidity,Sea Level PressureIn,VisibilityMPH,Wind Direction,Wind SpeedMPH,Gust SpeedMPH,PrecipitationIn,Events,Conditions,WindDirDegrees,DateUTC
12:56 AM,46.9,45.0,93,30.16,3.0,Calm,Calm,-,N/A,,Overcast,0,2012-12-03 05:56:00
1:11 AM,46.4,46.4,100,30.15,2.5,Calm,Calm,-,N/A,,Overcast,0,2012-12-03 06:11:00
1:28 AM,46.4,46.4,100,30.15,3.0,Calm,Calm,-,N/A,,Overcast,0,2012-12-03 06:28:00
1:54 AM,46.4,44.6,93,30.15,2.5,Calm,Calm,-,N/A,,Overcast,0,2012-12-03 06:54:00
1:56 AM,46.9,45.0,93,30.16,2.5,Calm,Calm,-,N/A,,Overcast,0,2012-12-03 06:56:00
2:08 AM,46.4,44.6,93,30.16,3.0,Calm,Calm,-,N/A,,Overcast,0,2012-12-03 07:08:00
2:56 AM,48.0,46.0,93,30.17,3.0,Calm,Calm,-,N/A,,Overcast,0,2012-12-03 07:56:00
3:08 AM,46.4,46.4,100,30.16,2.5,Calm,Calm,-,N/A,,Overcast,0,2012-12-03 08:08:00
3:16 AM,48.2,46.4,93,30.16,3.0,Calm,Calm,-,N/A,,Overcast,0,2012-12-03 08:16:00
3:44 AM,48.2,46.4,93,30.16,3.0,Calm,Calm,-,N/A,,Overcast,0,2012-12-03 08:44:00
3:56 AM,48.0,46.0,93,30.17,3.0,Calm,Calm,-,N/A,,Overcast,0,2012-12-03 08:56:00
4:56 AM,48.0,46.0,93,30.17,3.0,North,3.5,-,N/A,,Overcast,350,2012-12-03 09:56:00
5:52 AM,46.4,42.8,87,30.17,2.5,Calm,Calm,-,N/A,,Clear,0,2012-12-03 10:52:00
5:56 AM,45.0,44.1,97,30.18,2.5,Calm,Calm,-,N/A,,Clear,0,2012-12-03 10:56:00
6:11 AM,46.4,44.6,93,30.18,3.0,Calm,Calm,-,N/A,,Clear,0,2012-12-03 11:11:00
6:15 AM,46.4,44.6,93,30.19,1.8,Calm,Calm,-,N/A,,Clear,0,2012-12-03 11:15:00
6:24 AM,42.8,42.8,100,30.19,1.2,Calm,Calm,-,N/A,,Clear,0,2012-12-03 11:24:00
6:30 AM,42.8,42.8,100,30.20,2.0,Calm,Calm,-,N/A,,Clear,0,2012-12-03 11:30:00
6:32 AM,44.6,42.8,93,30.20,1.2,Calm,Calm,-,N/A,,Clear,0,2012-12-03 11:32:00
6:48 AM,44.6,44.6,100,30.20,2.0,Calm,Calm,-,N/A,,Clear,0,2012-12-03 11:48:00
6:56 AM,44.1,43.0,96,30.21,3.0,Calm,Calm,-,N/A,,Clear,0,2012-12-03 11:56:00
7:05 AM,41.0,41.0,100,30.21,3.0,Calm,Calm,-,N/A,,Partly Cloudy,0,2012-12-03 12:05:00
7:18 AM,41.0,41.0,100,30.21,3.0,Calm,Calm,-,N/A,,Mostly Cloudy,0,2012-12-03 12:18:00
7:32 AM,42.8,41.0,93,30.21,3.0,Calm,Calm,-,N/A,,Scattered Clouds,0,2012-12-03 12:32:00
7:56 AM,42.1,42.1,100,30.24,4.0,Calm,Calm,-,N/A,,Clear,0,2012-12-03 12:56:00
8:56 AM,48.9,45.0,86,30.25,4.0,Calm,Calm,-,N/A,,Clear,0,2012-12-03 13:56:00
9:27 AM,51.8,46.4,82,30.25,2.5,Calm,Calm,-,N/A,,Haze,0,2012-12-03 14:27:00
9:56 AM,53.1,46.9,80,30.25,4.0,Calm,Calm,-,N/A,,Haze,0,2012-12-03 14:56:00
10:56 AM,57.0,48.9,74,30.24,4.0,Calm,Calm,-,N/A,,Haze,0,2012-12-03 15:56:00
11:56 AM,64.0,52.0,65,30.22,6.0,Calm,Calm,-,N/A,,Haze,0,2012-12-03 16:56:00
12:56 PM,64.9,52.0,63,30.20,10.0,SW,8.1,-,N/A,,Overcast,230,2012-12-03 17:56:00
1:56 PM,64.9,52.0,63,30.19,10.0,WSW,6.9,-,N/A,,Overcast,240,2012-12-03 18:56:00
2:56 PM,66.0,52.0,60,30.19,10.0,WSW,4.6,-,N/A,,Clear,240,2012-12-03 19:56:00
3:56 PM,64.9,51.1,61,30.20,10.0,South,3.5,-,N/A,,Overcast,190,2012-12-03 20:56:00
4:56 PM,61.0,52.0,72,30.20,10.0,Calm,Calm,-,N/A,,Overcast,0,2012-12-03 21:56:00
5:56 PM,61.0,52.0,72,30.22,10.0,Calm,Calm,-,N/A,,Overcast,0,2012-12-03 22:56:00
6:56 PM,57.9,51.1,78,30.23,10.0,Calm,Calm,-,N/A,,Mostly Cloudy,0,2012-12-03 23:56:00
7:56 PM,59.0,51.1,75,30.23,10.0,Calm,Calm,-,N/A,,Overcast,0,2012-12-04 00:56:00
8:56 PM,55.9,52.0,87,30.22,10.0,Calm,Calm,-,0.00,,Overcast,0,2012-12-04 01:56:00
9:56 PM,57.9,52.0,81,30.22,10.0,East,5.8,-,N/A,,Overcast,80,2012-12-04 02:56:00
10:56 PM,55.9,51.1,84,30.22,9.0,Calm,Calm,-,N/A,,Overcast,0,2012-12-04 03:56:00
11:56 PM,55.9,52.0,87,30.23,6.0,North,4.6,-,0.00,Rain,Light Rain,350,2012-12-04 04:56:00